Location: Patterson (historical)
(35.1418°N, 90.5529°W)
Time: 17:24:08
(UTC+00:00)

SKYMED 2 - Pass Details

Date: 11 December 2025
Orbit: 622 x 623 km, 97.9° (Epoch: 20 January)

Event Time Altitude Azimuth Distance (km) Brightness Sun altitude
Exits shadow 23:25:46 - 24° (NNE) 2,822 6.5 -7.3°
Reaches altitude 10° 23:27:57 10° 35° (NE) 1,997 5.7 -7.7°
Maximum altitude 23:31:48 31° 97° (E) 1,102 4.4 -8.5°
Drops below altitude 10° 23:35:38 10° 160° (SSE) 1,983 6.2 -9.2°
Sets 23:38:01 0° 170° (S) 2,884 7.2 -9.6°
